GW6411 Weather Reports


time (UTC)temp
C
wind
direction
speed
KPH
gust
KPH
rain 1hr
cm
rain 24hr
cm
rain mn
cm
humidity
%
barometer
mb
20260906133006 20 120 0.0 1.6 0.00 0.00 0.00 88 1020.8
20260906131511 19 106 0.0 0.0 0.00 0.00 0.00 90 1020.8
20260906130020 18 106 0.0 0.0 0.00 0.00 0.00 92 1020.6
20260906124537 18 115 0.0 0.0 0.00 0.00 0.00 93 1020.3
20260906123003 17 115 0.0 0.0 0.00 0.00 0.00 93 1020.1
20260906121508 17 115 0.0 0.0 0.00 0.00 0.00 92 1019.9
20260906120014 17 115 0.0 0.0 0.00 0.00 0.00 91 1019.6
20260906114523 17 115 0.0 0.0 0.00 0.00 0.00 91 1019.8
20260906113028 17 115 0.0 0.0 0.00 0.00 0.00 91 1019.4
20260906111519 17 115 0.0 0.0 0.00 0.00 0.00 90 1019.3
20260906110010 17 115 0.0 0.0 0.00 0.00 0.00 90 1019.2
20260906104516 17 115 0.0 0.0 0.00 0.00 0.00 90 1019.3
20260906103025 17 115 0.0 0.0 0.00 0.00 0.00 90 1019.3
20260906101529 17 115 0.0 1.6 0.00 0.00 0.00 90 1019.2
20260906100010 17 115 0.0 0.0 0.00 0.00 0.00 90 1019.1
20260906094511 17 115 0.0 0.0 0.00 0.00 0.00 90 1018.9
20260906093022 17 115 0.0 0.0 0.00 0.00 0.00 90 1019.0
20260906091532 17 115 0.0 0.0 0.00 0.00 0.00 89 1018.9
20260906090030 18 115 0.0 0.0 0.00 0.00 0.00 89 1018.8
20260906084529 18 115 0.0 0.0 0.00 0.00 0.00 88 1018.7
20260906083015 18 115 0.0 0.0 0.00 0.00 0.00 88 1018.9
20260906081520 18 115 0.0 0.0 0.00 0.00 0.00 87 1018.8
20260906080031 18 115 0.0 0.0 0.00 0.00 0.00 86 1018.9
20260906074530 19 115 0.0 0.0 0.00 0.00 0.00 85 1019.0
20260906073036 20 115 0.0 0.0 0.00 0.00 0.00 84 1019.0
20260906071517 20 115 0.0 0.0 0.00 0.00 0.00 83 1019.1
20260906070003 20 108 0.0 1.6 0.00 0.00 0.00 84 1019.2
20260906064503 20 112 0.0 0.0 0.00 0.00 0.00 84 1019.3
20260906063007 20 112 0.0 1.6 0.00 0.00 0.00 84 1019.3
20260906061512 20 114 0.0 1.6 0.00 0.00 0.00 84 1019.4
20260906060013 20 113 0.0 1.6 0.00 0.00 0.00 85 1019.4
20260906054502 20 108 0.0 1.6 0.00 0.00 0.00 85 1019.1
20260906053008 19 118 0.0 1.6 0.00 0.00 0.00 85 1019.0
20260906051509 19 124 0.0 0.0 0.00 0.00 0.00 85 1019.1
20260906050018 19 124 0.0 0.0 0.00 0.00 0.00 85 1018.8
20260906044516 20 124 0.0 0.0 0.00 0.00 0.00 84 1018.6
20260906043006 20 124 0.0 0.0 0.00 0.00 0.00 84 1018.4
20260906041508 20 124 0.0 0.0 0.00 0.00 0.00 83 1018.3
20260906040013 20 124 0.0 0.0 0.00 0.00 0.00 83 1018.1
20260906034520 20 124 0.0 0.0 0.00 0.00 0.00 82 1018.0
20260906033024 21 124 0.0 0.0 0.00 0.00 0.00 82 1018.0
20260906031504 21 124 0.0 1.6 0.00 0.00 0.00 82 1017.9
20260906030017 21 67 0.0 1.6 0.00 0.00 0.00 81 1017.8
20260906024517 21 115 0.0 1.6 0.00 0.00 0.00 82 1017.5
20260906023027 21 131 0.0 3.2 0.00 0.00 0.00 81 1017.5
20260906021526 21 108 0.0 3.2 0.00 0.00 0.00 81 1017.1
20260906020027 21 117 0.0 1.6 0.00 0.00 0.00 81 1017.1
20260906014512 22 123 0.0 0.0 0.00 0.00 0.00 79 1017.1
20260906013029 22 113 0.0 0.0 0.00 0.00 0.00 78 1017.1
20260906011523 23 124 0.0 0.0 0.00 0.00 0.00 78 1017.1
20260906010027 23 360 0.0 0.0 0.00 0.00 0.00 77 1017.2
20260906004525 23 116 0.0 0.0 0.00 0.00 0.00 76 1017.1
20260906003014 24 115 0.0 3.2 0.00 0.00 0.00 75 1016.8
20260906001523 25 99 0.0 1.6 0.00 0.00 0.00 74 1016.8
20260906000046 25 116 0.0 3.2 0.00 0.00 0.00 73 1016.8
20260905234508 26 136 0.0 1.6 0.00 0.00 0.00 71 1016.6
20260905233009 26 71 0.0 1.6 0.00 0.00 0.00 71 1016.6
20260905231518 26 113 0.0 1.6 0.00 0.00 0.00 69 1016.6
20260905230023 27 5 0.0 3.2 0.00 0.00 0.00 68 1016.4
20260905224527 27 90 0.0 1.6 0.00 0.00 0.00 66 1016.1
20260905223009 28 115 0.0 3.2 0.00 0.00 0.00 64 1016.3
20260905221513 29 348 0.0 1.6 0.00 0.00 0.00 62 1016.4
20260905220016 30 259 0.0 3.2 0.00 0.00 0.00 61 1016.2
20260905214525 29 127 0.0 3.2 0.00 0.00 0.00 62 1016.2
20260905213031 28 117 0.0 4.8 0.00 0.00 0.00 65 1016.1
20260905211510 28 116 0.0 6.4 0.00 0.00 0.00 67 1016.1
20260905210016 28 131 0.0 1.6 0.00 0.00 0.00 69 1016.4
20260905204531 27 85 0.0 3.2 0.00 0.00 0.00 70 1016.6
20260905203028 27 108 0.0 1.6 0.00 0.00 0.00 69 1016.6
20260905201530 26 115 0.0 3.2 0.00 0.00 0.00 73 1016.8
20260905200025 26 116 0.0 3.2 0.00 0.00 0.00 73 1016.8
20260905194519 26 119 0.0 1.6 0.00 0.00 0.00 74 1016.9
20260905193024 26 109 0.0 1.6 0.00 0.00 0.00 73 1016.8
20260905191530 26 108 0.0 1.6 0.00 0.00 0.00 73 1016.8
20260905190033 26 71 0.0 1.6 0.00 0.00 0.00 74 1016.8
20260905184535 26 349 0.0 1.6 0.00 0.00 0.00 74 1017.0
20260905183036 26 19 0.0 1.6 0.00 0.00 0.00 74 1017.1
20260905181529 26 6 0.0 1.6 0.00 0.00 0.00 74 1017.1
20260905180033 26 70 0.0 3.2 0.00 0.00 0.00 73 1017.1
20260905174535 27 107 0.0 3.2 0.00 0.00 0.00 74 1017.1
20260905173017 27 104 0.0 1.6 0.00 0.00 0.00 73 1017.0
20260905171524 27 118 0.0 3.2 0.00 0.00 0.00 73 1017.0
20260905170026 27 84 0.0 3.2 0.00 0.00 0.00 74 1017.1
20260905164533 27 101 0.0 3.2 0.00 0.00 0.00 73 1017.1
20260905163031 27 113 0.0 1.6 0.00 0.00 0.00 73 1017.1
20260905161534 27 110 0.0 3.2 0.00 0.00 0.00 74 1017.0
20260905160029 26 119 0.0 3.2 0.00 0.00 0.00 75 1017.1
20260905154540 27 326 0.0 1.6 0.00 0.00 0.00 74 1017.0
20260905153031 26 117 0.0 3.2 0.00 0.00 0.00 76 1016.9
20260905151537 25 118 0.0 1.6 0.00 0.00 0.00 79 1016.7
20260905150004 24 117 0.0 3.2 0.00 0.00 0.00 80 1016.3
20260905144505 24 115 0.0 3.2 0.00 0.00 0.00 80 1016.1
20260905143008 24 117 0.0 3.2 0.00 0.00 0.00 82 1016.1
20260905141511 23 18 0.0 1.6 0.00 0.00 0.00 82 1015.9
20260905140017 24 100 0.0 3.2 0.00 0.00 0.00 81 1016.1
20260905134504 24 109 0.0 1.6 0.00 0.00 0.00 81 1016.1